#timestamp,LO_Frequency,Hit,StdDev 
1597424415.5,286046998.8,N
1597424435.3,286047001.2,N
1597424455.1,286046998.7,N
1597424475.9,286046998.1,N
1597424495.7,286046999.9,N
1597424515.6,286047000.8,N
1597424535.4,286047000.0,N
1597424555.2,286047000.2,N
1597424575.1,286047000.3,N
1597424576.0,286047000.3,N
1597424595.8,286047000.7,N
1597424615.6,286047000.4,N
1597424635.5,286047000.5,N
1597424655.3,286047002.1,N
1597424675.2,286047001.9,N
1597424695.9,286047001.8,N
1597424715.7,286047004.4,N
1597424735.6,286047003.3,N
1597424755.4,286047004.7,N
1597424775.3,286047003.3,N
1597424795.1,286047003.5,N
1597424796.0,286047003.5,N
1597424815.8,286047004.2,N
1597424835.7,286047003.5,N
1597424855.5,286047003.7,N
1597424875.3,286047004.2,N
1597424895.2,286047004.3,N
1597424915.0,286047001.6,N
1597424915.9,286047001.6,N
1597424935.8,286047001.4,N
1597424955.6,286047004.4,N
1597424975.4,286047001.7,N
1597424995.3,286047004.4,N
1597425015.1,286047004.0,N
1597425035.9,286047001.8,N
1597425055.7,286047004.2,N
1597425075.5,286047004.4,N
1597425095.4,286047001.4,N
1597425115.2,286047002.1,N
1597425135.0,286047001.3,N
1597425135.9,286047001.3,N
1597425155.8,286047004.3,Y
1597425175.6,286047000.5,P
1597425195.5,286047000.0,N
1597425215.3,286047001.6,N
1597425235.1,286046999.7,N
1597425255.9,286047001.4,N
1597425275.7,286047002.4,N
1597425295.5,286047002.3,N
1597425315.4,286047002.1,N
1597425335.2,286047001.8,N
1597425355.1,286047001.9,N
1597425356.0,286047001.9,N
1597425375.8,286047003.5,Y
1597425395.6,286047001.3,P
1597425415.5,286047001.4,P
1597425435.3,286047002.2,P
1597425455.2,286047001.4,Y
1597425475.9,286047000.2,P
1597425495.7,286047000.0,N
1597425515.6,286047000.9,N
1597425535.4,286047000.7,N
1597425555.3,286047000.0,N
1597425575.1,286046999.8,N
1597425576.0,286046999.8,N
1597425595.8,286047002.8,Y
1597425615.7,286047000.8,P
1597425635.5,286047000.7,P
1597425655.3,286047000.5,N
1597425675.2,286046998.1,Y
1597425695.0,286046996.9,P
1597425695.9,286046996.9,N
1597425715.8,286046999.6,N
1597425735.6,286046996.6,N
1597425755.4,286046997.1,N
1597425775.3,286046997.0,N
1597425795.1,286046997.9,N
1597425815.9,286046993.4,Y
1597425835.7,286046996.9,P
1597425855.5,286046997.8,P
1597425875.4,286046997.0,P
1597425895.2,286046999.6,N
1597425915.0,286046999.2,N
1597425946.0,286046996.9,E
1597425955.9,286046998.9,N
1597425975.7,286047002.0,P
1597425995.6,286047001.5,N
1597426015.4,286047002.0,N
1597426035.3,286047002.6,N
1597426055.1,286047001.4,N
1597426056.0,286047001.4,N
1597426075.8,286047004.3,Y
1597426095.7,286047002.7,P
1597426115.5,286046999.7,N
1597426135.3,286047000.5,N
1597426155.2,286046998.5,N
1597426175.0,286046998.4,N
1597426175.9,286046998.4,N
1597426195.8,286047000.5,N
1597426215.6,286047000.3,N
1597426235.4,286047002.3,N
1597426255.3,286047002.7,N
1597426275.1,286047002.1,N
1597426295.9,286046999.8,N
1597426315.7,286047000.0,N
1597426335.5,286047002.2,N
1597426355.4,286047002.6,N
1597426375.2,286047002.1,N
1597426395.0,286046999.9,N
1597426395.9,286046999.9,N
1597426415.8,286047000.3,N
1597426435.6,286047000.1,N
1597426455.5,286047002.7,N
1597426475.3,286047000.1,N
1597426495.1,286046999.8,N
1597426515.9,286047000.3,N
1597426535.7,286047002.6,N
1597426555.5,286047002.1,N
1597426575.4,286047001.3,N
1597426595.2,286047003.5,N
1597426615.1,286047001.8,N
1597426616.0,286047001.8,N
1597426635.8,286047001.9,N
1597426655.6,286047001.7,N
1597426675.5,286047002.7,N
1597426695.3,286047002.4,N
1597426715.2,286047003.5,N
1597426735.9,286047004.0,Y
1597426755.7,286047001.8,P
1597426775.6,286047001.4,P
1597426795.4,286047004.0,P
1597426815.2,286047001.4,N
1597426835.1,286047001.8,N
1597426836.0,286047001.8,N
1597426855.8,286047002.2,N
1597426875.7,286047001.5,N
1597426895.5,286047002.0,N
1597426915.3,286047001.7,N
1597426935.2,286047001.9,N
1597426955.0,286047001.6,N
1597426955.9,286047001.6,N
1597426975.8,286047001.6,N
1597426995.6,286047001.5,N
1597427015.4,286047001.8,N
1597427035.3,286047001.9,Y
1597427055.1,286047000.3,P
1597427075.8,286046998.9,N
1597427095.7,286046998.7,N
1597427115.5,286046998.4,N
1597427135.4,286047000.9,N
1597427155.2,286047000.6,N
1597427175.0,286047000.2,N
1597427175.9,286047000.2,N
1597427195.8,286047001.2,N
1597427215.6,286046999.4,N
1597427235.5,286046996.8,Y
1597427255.3,286046996.6,P
1597427275.1,286046997.1,N
1597427295.9,286046996.8,N
1597427315.7,286046997.5,N
1597427335.5,286046996.6,N
1597427355.4,286046998.8,N
1597427375.2,286046996.6,N
1597427395.1,286046999.5,N
1597427396.0,286046999.5,N
1597427415.8,286046996.6,N
1597427435.6,286046996.9,N
1597427455.5,286046996.9,N
1597427475.3,286046996.8,N
1597427495.1,286046997.2,N
1597427515.9,286046995.7,Y
1597427535.7,286046999.0,P
1597427555.6,286046996.9,P
1597427575.4,286046996.8,P
1597427595.2,286046996.5,Y
1597427615.1,286046998.2,P
1597427616.0,286046998.2,P
1597427635.8,286046999.1,P
1597427655.7,286046997.3,Y
1597427675.5,286046997.0,P
1597427695.3,286046997.0,P
1597427715.2,286046997.4,P
1597427735.0,286046995.6,Y
1597427735.9,286046995.6,P
1597427755.8,286046999.3,N
1597427775.6,286046999.1,N
1597427795.4,286046997.1,N
1597427815.3,286046998.0,N
1597427835.1,286046995.9,Y
1597427855.9,286046997.7,P
1597427875.7,286046995.0,P
1597427895.5,286046996.1,P
1597427915.4,286046996.1,Y
1597427935.2,286047000.4,P
1597427955.0,286046998.4,N
1597427955.9,286046998.4,N
1597427975.8,286046998.6,N
1597427995.6,286047001.2,N
